Location: Buckland
(65.9785°N, 161.1281°W)
Time: 21:49:42
(UTC+00:00)

SPROUT - Pass Details

Date: 20 January 2021
Orbit: 597 x 610 km, 97.9° (Epoch: 07 March)

Event Time Altitude Azimuth Distance (km) Brightness Sun altitude
Exits shadow 02:38:29 - 21° (NNE) 2,572 ? -5.7°
Reaches altitude 10° 02:40:10 10° 10° (N) 1,978 ? -5.8°
Maximum altitude 02:43:32 23° 319° (NW) 1,323 ? -6.1°
Drops below altitude 10° 02:46:54 10° 267° (W) 1,976 ? -6.3°
Sets 02:49:25 0° 253° (WSW) 2,879 ? -6.5°
